Powrót do katalogu

CELTEE 1

AktywnyNaukaPO
NORAD 41850·PAYLOAD·🇺🇸 United States

Wystrzelony Nov 11, 2016 z Vandenberg Space Force Base

Loading…

Następne Przeloty (najbliższe 24 godziny)

TLE

ŚwieżeSource: Space-Track

Epoka: Sep 14, 2026, 14:25 UTC

1 41850U 16067C   26257.60102856  .00004326  00000-0  20191-3 0  9999
2 41850  98.0515 130.2527 0000810  59.0223 301.1090 15.20434928539467

Śledź CELTEE 1 w czasie rzeczywistym z AllMySat

Download on the App Store